Location: Chippewa Lake
(41.0698°N, 81.9010°W)
Time: 02:19:21
(UTC+00:00)

COSMOS 2455 - Pass Details

Date: 09 May 2021
Orbit: 902 x 908 km, 67.1° (Epoch: 24 June)

Event Time Altitude Azimuth Distance (km) Brightness Sun altitude
Rises 07:19:22 0° 334° (NNW) 3,541 6.4 -25.7°
Reaches altitude 10° 07:21:58 10° 339° (NNW) 2,597 5.7 -25.4°
Maximum altitude 07:27:51 54° 56° (NE) 1,098 3.5 -24.8°
Drops below altitude 10° 07:33:43 10° 133° (SE) 2,584 5.1 -24.2°
Sets 07:36:17 0° 138° (SE) 3,522 5.8 -23.9°
